www.pogodaiklimat.ru

Погода и климат >> Архив погоды >> Россия >> Приморский край >> Терней


АРХИВ ПОГОДЫ в Тернее

Время (UTC), дата Ветер
(напр.,м/с)
 
Видим.   Явления Облачность Т
(С)
Тd
(С)
f
(%)
Тe
(С)
Тes
(С)
Комфортность P
(гПа)
Po
(гПа)
Тmin
(С)
Tmax
(С)
R
(мм)
R24
(мм)
S
(см)
12 17.01 СЗ 14-26
{30}
20 км ясно -18.9 -30.7 34 -34 -34 опасность
обморожения
1007.0 998.7
15 17.01 СЗ 14-26
{28}
20 км 3/3 600 м
[Sc]
-18.1 -29.9 35 -33 -33 опасность
обморожения
1008.3 1000.0
18 17.01 З 12-20
{27}
20 км 3/3 600 м
[Sc]
-17.6 -29.4 35 -31 -31 опасность
обморожения
1011.3 1002.9
21 17.01 СЗ 8-17
{23}
20 км ясно -17.5 -29.2 35 -29 -29 1012.8 1004.5 -19.6
00 18.01 СЗ 6-12
{17}
50 км 3/0
[Cc]
-15.8 -28.1 34 -26 -25 1015.2 1006.9
03 18.01 З 8-16
{20}
50 км ясно -10.7 -26.1 27 -20 -19 1013.5 1005.3
06 18.01 З 7-14
{20}
50 км ясно -8.6 -25.5 24 -17 -17 1013.2 1005.1
09 18.01 СЗ 6-15
{15}
20 км ясно -11.6 -26.7 27 -20 -20 1016.6 1008.4 -8.4
12 18.01 СЗ 5
{19}
20 км ясно -12.4 -25.6 32 -20 -20 1018.8 1010.6
15 18.01 СЗ 7-14
{14}
20 км ясно -12.3 -24.8 34 -22 -22 1018.9 1010.7
18 18.01 СЗ 6-11
{15}
20 км ясно -11.6 -24.8 33 -20 -20 1018.6 1010.4
21 18.01 З 8-13
{17}
20 км ясно -11.6 -24.8 33 -21 -21 1018.9 1010.7 -12.6
00 19.01 З 8-14
{15}
50 км ясно -9.1 -25.4 25 -18 -18 1018.3 1010.2
03 19.01 З 6-10
{20}
50 км ясно -4.6 -26.5 16 -11 -9 1016.2 1008.3
06 19.01 З 5
{14}
50 км ясно -3.4 -26.3 15 -9 -8 1015.6 1007.7
09 19.01 СЗ 3
{10}
20 км ясно -7.4 -24.5 24 -12 -12 1016.3 1008.3 -2.6
12 19.01 З 5 20 км ясно -8.6 -25.9 23 -16 -16 1016.7 1008.6
15 19.01 З 4
{10}
20 км ясно -9.5 -24.3 29 -16 -16 1015.1 1007.0
18 19.01 З 3 20 км ясно -10.8 -24.4 32 -17 -17 1013.0 1004.9
21 19.01 З 3 20 км 10/0
[As trans]
-9.0 -24.3 28 -14 -14 1011.0 1002.9 -12.0
00 20.01 СЗ 5 50 км 9/3 600 м
[Sc As trans]
-8.6 -22.4 32 -16 -15 1009.6 1001.6
03 20.01 СЗ 7-13
{14}
50 км 4/3 600 м
[Sc Ac trans]
-5.9 -21.9 27 -14 -13 1006.4 998.5
06 20.01 СЗ 6-15
{17}
50 км 10/0
[As trans]
-8.0 -23.2 28 -16 -15 1004.9 996.9
09 20.01 СЗ 11-19
{19}
20 км 8/8 600 м
[Sc]
-11.2 -24.7 32 -22 -22 1005.7 997.6 -5.2
12 20.01 З 11-18
{23}
20 км 10/3 600 м
[Sc Ac trans Ci sp]
-13.5 -25.7 35 -25 -25 1006.3 998.1
15 20.01 СЗ 10-18
{23}
20 км 3/0
[Ac trans Ci sp]
-13.8 -26.7 33 -25 -25 1006.6 998.4
18 20.01 СЗ 10-18
{22}
20 км 3/0
[Ci sp]
-13.7 -25.9 35 -25 -25 1006.5 998.3
21 20.01 З 6-13
{19}
20 км 3/1 600 м
[Sc Ci sp]
-14.1 -25.7 37 -23 -23 1006.6 998.4 -14.2
00 21.01 СЗ 8-15
{19}
50 км 3/0
[Ci sp]
-13.1 -25.6 34 -23 -23 1006.9 998.7 -14.4
03 21.01 З 8-15
{19}
50 км ясно -10.0 -25.0 28 -19 -19 1006.2 998.1
06 21.01 З 7-13
{15}
50 км ясно -9.3 -24.0 29 -18 -18 1005.7 997.7
09 21.01 СЗ 9-16
{17}
20 км ясно -11.6 -23.3 37 -22 -22 1006.8 998.7 -8.7
12 21.01 СЗ 9-14
{18}
20 км ясно -11.8 -22.5 41 -22 -22 1007.3 999.2
15 21.01 З 10-16
{18}
20 км ясно -11.9 -23.0 39 -23 -23 1006.9 998.8
18 21.01 СЗ 5-10
{16}
20 км ясно -12.3 -24.6 35 -20 -20 1007.9 999.8
21 21.01 СЗ 6-10
{16}
20 км ясно -11.8 -24.7 33 -21 -21 1008.0 999.9 -12.5
00 22.01 СЗ 4
{18}
50 км ясно -9.1 -23.2 31 -16 -15 1009.3 1001.2
03 22.01 СЗ 5
{13}
50 км ясно -4.2 -23.6 20 -10 -8 1008.6 1000.7
06 22.01 З 6-10
{12}
50 км 4/0
[Ac As]
-4.8 -20.5 28 -12 -11 1008.2 1000.3
09 22.01 З 4
{10}
20 км 10/0
[Ac und]
-5.7 -20.1 31 -11 -11 1008.8 1000.9 -2.6
12 22.01 СЗ 4 20 км 8/0
[Ac trans]
-8.0 -20.0 37 -14 -14 1009.5 1001.5
15 22.01 З 1 20 км 3/0
[Ac trans]
-12.0 -20.0 51 -14 -14 1010.1 1002.0
18 22.01 СЗ 1 20 км ясно -12.6 -19.3 57 -15 -15 1009.0 1000.9
21 22.01 СЗ 2 20 км ясно -14.9 -19.1 70 -20 -20 1008.4 1000.2 -15.0
00 23.01 СЗ 4 50 км 3/3 600 м
[Sc]
-12.6 -17.6 66 -20 -19 1008.4 1000.2 -16.4
03 23.01 СЗ 6-10
{10}
50 км 5/3 600 м
[Sc Ac trans]
-3.7 -16.1 38 -10 -9 1006.8 999.0
06 23.01 З 8-13
{14}
50 км 6/3 600 м
[Sc Cs]
-5.9 -18.7 36 -14 -14 1007.1 999.2
09 23.01 СЗ 9-16
{16}
20 км 3/3 600 м
[Sc]
-8.5 -19.3 41 -18 -18 1009.5 1001.5 -3.7
12 23.01 З 8-13
{16}
20 км ясно -9.7 -19.9 43 -19 -19 1010.8 1002.8
15 23.01 З 9-15
{16}
20 км ясно -11.5 -21.4 44 -22 -22 1011.7 1003.6
18 23.01 СЗ 8-13
{17}
20 км ясно -12.6 -21.7 46 -23 -23 1012.6 1004.5
21 23.01 З 7-13
{18}
20 км ясно -12.9 -21.9 47 -23 -23 1014.5 1006.3 -13.0
00 24.01 З 8-14
{15}
50 км 1/0
[Ci sp]
-11.3 -21.4 43 -21 -21 1016.5 1008.4 -13.1
03 24.01 З 7-13
{14}
50 км ясно -7.0 -20.8 32 -15 -14 1015.9 1007.8
06 24.01 З 7-13
{16}
50 км ясно -5.6 -20.0 31 -13 -13 1016.1 1008.1
09 24.01 З 8-14
{14}
20 км ясно -8.7 -19.7 41 -18 -18 1018.1 1010.0 -5.3

 

Местоположение метеостанции Терней (Приморский край, Россия): широта 45.00 долгота 136.60 высота над уровнем моря 62 м.

В архиве по умолчанию представлена погода в Тернее за последнюю неделю. Архивные данные за месяц целиком и за предыдущие месяцы, начиная с января 2011 года, Вы можете получить, выбрав интересующий диапазон дат из раскрывающегося списка и нажав кнопку "Ввод!".


*Определитесь, кто Вы:
робот инопланетянин человек

Внимание! Время в таблицах - всемирное. Для получения местного времени необходимо прибавить поправку, которая равна 10 ч.

Смотрите также архив погоды в соседних городах и на ближайших метеорологических станциях:

Погода в Малой Кеме (Приморский край, Россия) (59 км)
Погода в Рудной Пристани (Приморский край, Россия) (94 км)
Погода в Мельничном (Приморский край, Россия) (100 км)
Погода в Богополе (Приморский край, Россия) (126 км)
Погода в Кавалерово (Приморский край, Россия) (152 км)
Погода в Глубинном (Приморский край, Россия) (156 км)
Погода в Ольге (Приморский край, Россия) (173 км)
Погода в Дальнегорске (Приморский край, Россия) (181 км)
Погода в Малиново (Приморский край, Россия) (194 км)
Погода в Красном Яре (Приморский край, Россия) (198 км)

Пояснения к столбцам:

Ветер - указаны скорость ветра в м/с - средняя за 10 мин, порывы в срок и между сроками (в фигурных скобках) и направление, откуда дует ветер: С - северный, СВ - северо-восточный, В - восточный, ЮВ - юго-восточный, Ю - южный, ЮЗ - юго-западный, З - западный, СЗ - северо-западный.
Видимость - горизонтальная дальность видимости в метрах или километрах. При видимости от 1 до 10 км при отсутствии осадков обычно наблюдается дымка, при ухудшении видимости до 1 км и менее - туман. В сухую погоду видимость может ухудшаться дымом, пылью или мглою.
Явления - указаны атмосферные явления, наблюдавшиеся в срок или в последний час перед сроком; фигурными скобками обозначены явления, наблюдавшиеся между сроками (за 1-3 часа до срока); квадратными скобками обозначены град или гололедные отложения с указанием их диаметра в мм.
Облачность - указаны через наклонную черту общая и нижняя облачность в баллах и высота нижней границы облаков в метрах; квадратными скобками обозначены формы облаков: Ci - перистые, Cs - перисто-слоистые, Cc - перисто-кучевые, Ac - высококучевые, As - высокослоистые, Sc - слоисто-кучевые, Ns - слоисто-дождевые, Cu - кучевые, Cb - кучево-дождевые. Подробнее классификацию облаков см. в Атласе облаков (PDF).
T - Температура воздуха - температура, измеренная на высоте 2 м над землей.
Td - Температура точки росы - температура, при понижении до которой содержащийся в воздухе водяной пар достигнет насыщения.
f - Относительная влажность воздуха - влажноcть воздуха, измеренная на высоте 2 м над землей.
Te - Эффективная температура - температура, которую ощущает одетый по сезону человек в тени. Характеристика душности погоды. При расчете учитывается влияние влажности воздуха и скорости ветра на теплоощущения человека.
Tes - Эффективная температура на солнце - температура, которую ощущает человек, с поправкой на солнечный нагрев. Характеристика знойности погоды. Зависит от высоты солнца над горизонтом, облачности и скорости ветра. Ночью, в пасмурную погоду, а также при ветре 12 м/с и более поправка равна нулю.
P - Атмосферное давление - приведенное к уровню моря атмосферное давление.
Po - Атмосферное давление - измеренное на уровне метеостанции атмосферное давление.
Tmin - Минимальная температура - минимум температуры воздуха на высоте 2 м над землей.
Tmax - Максимальная температура - максимум температуры воздуха на высоте 2 м над землей.
R - Количество осадков - Количество выпавших осадков за период времени, мм. При наведении курсора мыши на число - период времени, за который выпало указанное количество осадков.
R24 - Количество осадков - Количество выпавших осадков за 24 часа, мм.
S - Снежный покров - Высота снежного покрова, см. При наведении курсора мыши на число - состояние снежного покрова и степень покрытия местности в баллах.